Year,Month,Day,Hour,Minute,Value (Times are PST for temperature in C)
2016,04,07,00,00,10.70
2016,04,07,00,01,10.80
2016,04,07,00,02,10.80
2016,04,07,00,03,10.70
2016,04,07,00,04,10.70
2016,04,07,00,05,10.70
2016,04,07,00,06,10.70
2016,04,07,00,07,10.60
2016,04,07,00,08,10.70
2016,04,07,00,09,10.70
2016,04,07,00,10,10.70
2016,04,07,00,11,10.70
2016,04,07,00,12,10.70
2016,04,07,00,13,10.70
2016,04,07,00,14,10.60
2016,04,07,00,15,10.70
2016,04,07,00,16,10.70
2016,04,07,00,17,10.70
2016,04,07,00,18,10.80
2016,04,07,00,19,10.70
2016,04,07,00,20,10.70
2016,04,07,00,21,10.70
2016,04,07,00,22,10.70
2016,04,07,00,23,10.60
2016,04,07,00,24,10.70
2016,04,07,00,25,10.80
2016,04,07,00,26,10.80
2016,04,07,00,27,10.80
2016,04,07,00,28,10.80
2016,04,07,00,29,10.90
2016,04,07,00,30,10.90
2016,04,07,00,31,10.90
2016,04,07,00,32,10.90
2016,04,07,00,33,10.90
2016,04,07,00,34,10.90
2016,04,07,00,35,10.90
2016,04,07,00,36,10.90
2016,04,07,00,37,10.90
2016,04,07,00,38,10.90
2016,04,07,00,39,10.90
2016,04,07,00,40,10.80
2016,04,07,00,41,10.80
2016,04,07,00,42,10.70
2016,04,07,00,43,10.80
2016,04,07,00,44,10.80
2016,04,07,00,45,10.80
2016,04,07,00,46,10.90
2016,04,07,00,47,10.90
2016,04,07,00,48,10.90
2016,04,07,00,49,10.90
2016,04,07,00,50,10.90
2016,04,07,00,51,11.00
2016,04,07,00,52,11.00
2016,04,07,00,53,11.00
2016,04,07,00,54,11.00
2016,04,07,00,55,11.00
2016,04,07,00,56,10.90
2016,04,07,00,57,10.90
2016,04,07,00,58,10.90
2016,04,07,00,59,10.80
2016,04,07,01,00,10.80
2016,04,07,01,01,10.80
2016,04,07,01,02,10.70
2016,04,07,01,03,10.70
2016,04,07,01,04,10.70
2016,04,07,01,05,10.70
2016,04,07,01,06,10.70
2016,04,07,01,07,10.70
2016,04,07,01,08,10.60
2016,04,07,01,09,10.70
2016,04,07,01,10,10.90
2016,04,07,01,11,10.90
2016,04,07,01,12,10.90
2016,04,07,01,13,10.90
2016,04,07,01,14,10.80
2016,04,07,01,15,10.80
2016,04,07,01,16,10.70
2016,04,07,01,17,10.70
2016,04,07,01,18,10.70
2016,04,07,01,19,10.70
2016,04,07,01,20,10.70
2016,04,07,01,21,10.70
2016,04,07,01,22,10.70
2016,04,07,01,23,10.70
2016,04,07,01,24,10.70
2016,04,07,01,25,10.70
2016,04,07,01,26,10.60
2016,04,07,01,27,10.60
2016,04,07,01,28,10.50
2016,04,07,01,29,10.50
2016,04,07,01,30,10.40
2016,04,07,01,31,10.40
2016,04,07,01,32,10.30
2016,04,07,01,33,10.20
2016,04,07,01,34,10.20
2016,04,07,01,35,10.20
2016,04,07,01,36,10.10
2016,04,07,01,37,10.10
2016,04,07,01,38,10.10
2016,04,07,01,39,10.20
2016,04,07,01,40,10.30
2016,04,07,01,41,10.40
2016,04,07,01,42,10.60
2016,04,07,01,43,10.70
2016,04,07,01,44,10.80
2016,04,07,01,45,10.90
2016,04,07,01,46,11.00
2016,04,07,01,47,11.20
2016,04,07,01,48,11.30
2016,04,07,01,49,11.40
2016,04,07,01,50,11.40
2016,04,07,01,51,11.50
2016,04,07,01,52,11.70
2016,04,07,01,53,11.80
2016,04,07,01,54,12.00
2016,04,07,01,55,12.20
2016,04,07,01,56,12.20
2016,04,07,01,57,12.30
2016,04,07,01,58,12.20
2016,04,07,01,59,12.10
2016,04,07,02,00,12.10
2016,04,07,02,01,12.10
2016,04,07,02,02,12.20
2016,04,07,02,03,12.10
2016,04,07,02,04,12.00
2016,04,07,02,05,12.00
2016,04,07,02,06,12.00
2016,04,07,02,07,12.10
2016,04,07,02,08,12.20
2016,04,07,02,09,12.20
2016,04,07,02,10,12.20
2016,04,07,02,11,12.10
2016,04,07,02,12,12.10
2016,04,07,02,13,12.10
2016,04,07,02,14,12.00
2016,04,07,02,15,12.10
2016,04,07,02,16,12.10
2016,04,07,02,17,12.20
2016,04,07,02,18,12.30
2016,04,07,02,19,12.40
2016,04,07,02,20,12.50
2016,04,07,02,21,12.50
2016,04,07,02,22,12.60
2016,04,07,02,23,12.60
2016,04,07,02,24,12.50
2016,04,07,02,25,12.50
2016,04,07,02,26,12.50
2016,04,07,02,27,12.40
2016,04,07,02,28,12.40
2016,04,07,02,29,12.40
2016,04,07,02,30,12.40
2016,04,07,02,31,12.50
2016,04,07,02,32,12.50
2016,04,07,02,33,12.60
2016,04,07,02,34,12.60
2016,04,07,02,35,12.70
2016,04,07,02,36,12.70
2016,04,07,02,37,12.70
2016,04,07,02,38,12.70
2016,04,07,02,39,12.70
2016,04,07,02,40,12.80
2016,04,07,02,41,12.80
2016,04,07,02,42,12.80
2016,04,07,02,43,12.80
2016,04,07,02,44,12.80
2016,04,07,02,45,12.80
2016,04,07,02,46,12.80
2016,04,07,02,47,12.70
2016,04,07,02,48,12.70
2016,04,07,02,49,12.70
2016,04,07,02,50,12.70
2016,04,07,02,51,12.70
2016,04,07,02,52,12.70
2016,04,07,02,53,12.70
2016,04,07,02,54,12.70
2016,04,07,02,55,12.70
2016,04,07,02,56,12.70
2016,04,07,02,57,12.80
2016,04,07,02,58,12.80
2016,04,07,02,59,12.90
2016,04,07,03,00,12.90
2016,04,07,03,01,12.90
2016,04,07,03,02,12.90
2016,04,07,03,03,12.80
2016,04,07,03,04,12.80
2016,04,07,03,05,12.80
2016,04,07,03,06,12.70
2016,04,07,03,07,12.70
2016,04,07,03,08,12.70
2016,04,07,03,09,12.60
2016,04,07,03,10,12.60
2016,04,07,03,11,12.50
2016,04,07,03,12,12.50
2016,04,07,03,13,12.40
2016,04,07,03,14,12.40
2016,04,07,03,15,12.30
2016,04,07,03,16,12.30
2016,04,07,03,17,12.20
2016,04,07,03,18,12.20
2016,04,07,03,19,12.10
2016,04,07,03,20,12.10
2016,04,07,03,21,12.00
2016,04,07,03,22,11.90
2016,04,07,03,23,11.90
2016,04,07,03,24,11.80
2016,04,07,03,25,11.80
2016,04,07,03,26,11.90
2016,04,07,03,27,11.90
2016,04,07,03,28,11.90
2016,04,07,03,29,11.90
2016,04,07,03,30,12.00
2016,04,07,03,31,12.10
2016,04,07,03,32,12.10
2016,04,07,03,33,12.20
2016,04,07,03,34,12.20
2016,04,07,03,35,12.30
2016,04,07,03,36,12.30
2016,04,07,03,37,12.30
2016,04,07,03,38,12.30
2016,04,07,03,39,12.30
2016,04,07,03,40,12.30
2016,04,07,03,41,12.30
2016,04,07,03,42,12.30
2016,04,07,03,43,12.30
2016,04,07,03,44,12.30
2016,04,07,03,45,12.30
2016,04,07,03,46,12.30
2016,04,07,03,47,12.30
2016,04,07,03,48,12.20
2016,04,07,03,49,12.20
2016,04,07,03,50,12.20
2016,04,07,03,51,12.20
2016,04,07,03,52,12.20
2016,04,07,03,53,12.20
2016,04,07,03,54,12.20
2016,04,07,03,55,12.20
2016,04,07,03,56,12.30
2016,04,07,03,57,12.30
2016,04,07,03,58,12.40
2016,04,07,03,59,12.50
2016,04,07,04,00,12.50
2016,04,07,04,01,12.60
2016,04,07,04,02,12.60
2016,04,07,04,03,12.50
2016,04,07,04,04,12.50
2016,04,07,04,05,12.50
2016,04,07,04,06,12.50
2016,04,07,04,07,12.40
2016,04,07,04,08,12.40
2016,04,07,04,09,12.40
2016,04,07,04,10,12.40
2016,04,07,04,11,12.30
2016,04,07,04,12,12.30
2016,04,07,04,13,12.30
2016,04,07,04,14,12.30
2016,04,07,04,15,12.30
2016,04,07,04,16,12.30
2016,04,07,04,17,12.20
2016,04,07,04,18,12.20
2016,04,07,04,19,12.20
2016,04,07,04,20,12.20
2016,04,07,04,21,12.20
2016,04,07,04,22,12.20
2016,04,07,04,23,12.20
2016,04,07,04,24,12.20
2016,04,07,04,25,12.20
2016,04,07,04,26,12.30
2016,04,07,04,27,12.30
2016,04,07,04,28,12.30
2016,04,07,04,29,12.30
2016,04,07,04,30,12.30
2016,04,07,04,31,12.30
2016,04,07,04,32,12.30
2016,04,07,04,33,12.30
2016,04,07,04,34,12.30
2016,04,07,04,35,12.30
2016,04,07,04,36,12.30
2016,04,07,04,37,12.40
2016,04,07,04,38,12.40
2016,04,07,04,39,12.40
2016,04,07,04,40,12.40
2016,04,07,04,41,12.40
2016,04,07,04,42,12.40
2016,04,07,04,43,12.40
2016,04,07,04,44,12.40
2016,04,07,04,45,12.40
2016,04,07,04,46,12.40
2016,04,07,04,47,12.30
2016,04,07,04,48,12.30
2016,04,07,04,49,12.30
2016,04,07,04,50,12.30
2016,04,07,04,51,12.30
2016,04,07,04,52,12.30
2016,04,07,04,53,12.30
2016,04,07,04,54,12.20
2016,04,07,04,55,12.20
2016,04,07,04,56,12.20
2016,04,07,04,57,12.20
2016,04,07,04,58,12.20
2016,04,07,04,59,12.20
2016,04,07,05,00,12.20
2016,04,07,05,01,12.20
2016,04,07,05,02,12.20
2016,04,07,05,03,12.20
2016,04,07,05,04,12.20
2016,04,07,05,05,12.20
2016,04,07,05,06,12.20
2016,04,07,05,07,12.20
2016,04,07,05,08,12.30
2016,04,07,05,09,12.30
2016,04,07,05,10,12.20
2016,04,07,05,11,12.30
2016,04,07,05,12,12.30
2016,04,07,05,13,12.20
2016,04,07,05,14,12.20
2016,04,07,05,15,12.20
2016,04,07,05,16,12.20
2016,04,07,05,17,12.20
2016,04,07,05,18,12.20
2016,04,07,05,19,12.20
2016,04,07,05,20,12.20
2016,04,07,05,21,12.20
2016,04,07,05,22,12.20
2016,04,07,05,23,12.10
2016,04,07,05,24,12.10
2016,04,07,05,25,12.10
2016,04,07,05,26,12.00
2016,04,07,05,27,11.90
2016,04,07,05,28,11.90
2016,04,07,05,29,11.80
2016,04,07,05,30,11.80
2016,04,07,05,31,11.80
2016,04,07,05,32,11.70
2016,04,07,05,33,11.70
2016,04,07,05,34,11.60
2016,04,07,05,35,11.60
2016,04,07,05,36,11.50
2016,04,07,05,37,11.50
2016,04,07,05,38,11.40
2016,04,07,05,39,11.30
2016,04,07,05,40,11.30
2016,04,07,05,41,11.20
2016,04,07,05,42,11.20
2016,04,07,05,43,11.10
2016,04,07,05,44,11.00
2016,04,07,05,45,10.90
2016,04,07,05,46,10.90
2016,04,07,05,47,11.00
2016,04,07,05,48,11.00
2016,04,07,05,49,11.10
2016,04,07,05,50,11.10
2016,04,07,05,51,11.10
2016,04,07,05,52,11.10
2016,04,07,05,53,11.10
2016,04,07,05,54,11.10
2016,04,07,05,55,11.10
2016,04,07,05,56,11.10
2016,04,07,05,57,11.10
2016,04,07,05,58,11.10
2016,04,07,05,59,11.10
2016,04,07,06,00,11.10
2016,04,07,06,01,11.10
2016,04,07,06,02,11.10
2016,04,07,06,03,11.10
2016,04,07,06,04,11.10
2016,04,07,06,05,11.10
2016,04,07,06,06,11.10
2016,04,07,06,07,11.10
2016,04,07,06,08,11.10
2016,04,07,06,09,11.10
2016,04,07,06,10,11.10
2016,04,07,06,11,11.10
2016,04,07,06,12,11.20
2016,04,07,06,13,11.20
2016,04,07,06,14,11.20
2016,04,07,06,15,11.20
2016,04,07,06,16,11.20
2016,04,07,06,17,11.20
2016,04,07,06,18,11.20
2016,04,07,06,19,11.20
2016,04,07,06,20,11.20
2016,04,07,06,21,11.10
2016,04,07,06,22,11.10
2016,04,07,06,23,11.00
2016,04,07,06,24,10.90
2016,04,07,06,25,10.90
2016,04,07,06,26,10.80
2016,04,07,06,27,10.80
2016,04,07,06,28,10.80
2016,04,07,06,29,10.80
2016,04,07,06,30,10.80
2016,04,07,06,31,10.80
2016,04,07,06,32,10.70
2016,04,07,06,33,10.70
2016,04,07,06,34,10.70
2016,04,07,06,35,10.70
2016,04,07,06,36,10.70
2016,04,07,06,37,10.70
2016,04,07,06,38,10.60
2016,04,07,06,39,10.60
2016,04,07,06,40,10.60
2016,04,07,06,41,10.50
2016,04,07,06,42,10.40
2016,04,07,06,43,10.30
2016,04,07,06,44,10.30
2016,04,07,06,45,10.30
2016,04,07,06,46,10.30
2016,04,07,06,47,10.30
2016,04,07,06,48,10.40
2016,04,07,06,49,10.40
2016,04,07,06,50,10.50
2016,04,07,06,51,10.50
2016,04,07,06,52,10.60
2016,04,07,06,53,10.60
2016,04,07,06,54,10.60
2016,04,07,06,55,10.70
2016,04,07,06,56,10.60
2016,04,07,06,57,10.60
2016,04,07,06,58,10.70
2016,04,07,06,59,10.70
2016,04,07,07,00,10.70
2016,04,07,07,01,10.70
2016,04,07,07,02,10.70
2016,04,07,07,03,10.70
2016,04,07,07,04,10.70
2016,04,07,07,05,10.70
2016,04,07,07,06,10.70
2016,04,07,07,07,10.70
2016,04,07,07,08,10.80
2016,04,07,07,09,10.80
2016,04,07,07,10,10.90
2016,04,07,07,11,10.90
2016,04,07,07,12,10.90
2016,04,07,07,13,10.90
2016,04,07,07,14,10.90
2016,04,07,07,15,10.80
2016,04,07,07,16,10.80
2016,04,07,07,17,10.80
2016,04,07,07,18,10.80
2016,04,07,07,19,10.80
2016,04,07,07,20,10.80
2016,04,07,07,21,10.90
2016,04,07,07,22,10.90
2016,04,07,07,23,11.00
2016,04,07,07,24,11.10
2016,04,07,07,25,11.10
2016,04,07,07,26,11.20
2016,04,07,07,27,11.20
2016,04,07,07,28,11.10
2016,04,07,07,29,11.10
2016,04,07,07,30,11.10
2016,04,07,07,31,11.00
2016,04,07,07,32,11.00
2016,04,07,07,33,11.00
2016,04,07,07,34,11.00
2016,04,07,07,35,10.90
2016,04,07,07,36,10.90
2016,04,07,07,37,10.90
2016,04,07,07,38,10.80
2016,04,07,07,39,10.80
2016,04,07,07,40,10.80
2016,04,07,07,41,10.70
2016,04,07,07,42,10.70
2016,04,07,07,43,10.70
2016,04,07,07,44,10.70
2016,04,07,07,45,10.70
2016,04,07,07,46,10.70
2016,04,07,07,47,10.70
2016,04,07,07,48,10.80
2016,04,07,07,49,10.80
2016,04,07,07,50,10.80
2016,04,07,07,51,10.80
2016,04,07,07,52,10.90
2016,04,07,07,53,10.90
2016,04,07,07,54,10.90
2016,04,07,07,55,10.90
2016,04,07,07,56,10.90
2016,04,07,07,57,10.90
2016,04,07,07,58,11.00
2016,04,07,07,59,11.00
2016,04,07,08,00,11.10
2016,04,07,08,01,11.10
2016,04,07,08,02,11.10
2016,04,07,08,03,11.20
2016,04,07,08,04,11.30
2016,04,07,08,05,11.40
2016,04,07,08,06,11.50
2016,04,07,08,07,11.70
2016,04,07,08,08,11.90
2016,04,07,08,09,12.10
2016,04,07,08,10,12.30
2016,04,07,08,11,12.40
2016,04,07,08,12,12.50
2016,04,07,08,13,12.60
2016,04,07,08,14,12.70
2016,04,07,08,15,12.80
2016,04,07,08,16,12.80
2016,04,07,08,17,12.80
2016,04,07,08,18,12.90
2016,04,07,08,19,13.00
2016,04,07,08,20,13.00
2016,04,07,08,21,13.10
2016,04,07,08,22,13.20
2016,04,07,08,23,13.20
2016,04,07,08,24,13.20
2016,04,07,08,25,13.20
2016,04,07,08,26,13.30
2016,04,07,08,27,13.30
2016,04,07,08,28,13.40
2016,04,07,08,29,13.40
2016,04,07,08,30,13.50
2016,04,07,08,31,13.50
2016,04,07,08,32,13.60
2016,04,07,08,33,13.70
2016,04,07,08,34,13.70
2016,04,07,08,35,13.80
2016,04,07,08,36,13.90
2016,04,07,08,37,13.90
2016,04,07,08,38,14.00
2016,04,07,08,39,14.10
2016,04,07,08,40,14.20
2016,04,07,08,41,14.20
2016,04,07,08,42,14.30
2016,04,07,08,43,14.40
2016,04,07,08,44,14.50
2016,04,07,08,45,14.60
2016,04,07,08,46,14.70
2016,04,07,08,47,14.70
2016,04,07,08,48,14.70
2016,04,07,08,49,14.80
2016,04,07,08,50,14.80
2016,04,07,08,51,14.90
2016,04,07,08,52,15.00
2016,04,07,08,53,15.10
2016,04,07,08,54,15.20
2016,04,07,08,55,15.30
2016,04,07,08,56,15.40
2016,04,07,08,57,15.50
2016,04,07,08,58,15.60
2016,04,07,08,59,15.60
2016,04,07,09,00,15.70
2016,04,07,09,01,15.70
2016,04,07,09,02,15.70
2016,04,07,09,03,15.70
2016,04,07,09,04,15.70
2016,04,07,09,05,15.70
2016,04,07,09,06,15.70
2016,04,07,09,07,15.70
2016,04,07,09,08,15.70
2016,04,07,09,09,15.70
2016,04,07,09,10,15.70
2016,04,07,09,11,15.70
2016,04,07,09,12,15.70
2016,04,07,09,13,15.80
2016,04,07,09,14,15.80
2016,04,07,09,15,15.90
2016,04,07,09,16,16.00
2016,04,07,09,17,16.10
2016,04,07,09,18,16.20
2016,04,07,09,19,16.30
2016,04,07,09,20,16.30
2016,04,07,09,21,16.30
2016,04,07,09,22,16.40
2016,04,07,09,23,16.40
2016,04,07,09,24,16.50
2016,04,07,09,25,16.50
2016,04,07,09,26,16.50
2016,04,07,09,27,16.50
2016,04,07,09,28,16.60
2016,04,07,09,29,16.70
2016,04,07,09,30,16.80
2016,04,07,09,31,16.90
2016,04,07,09,32,17.00
2016,04,07,09,33,17.00
2016,04,07,09,34,17.00
2016,04,07,09,35,17.10
2016,04,07,09,36,17.10
2016,04,07,09,37,17.10
2016,04,07,09,38,17.10
2016,04,07,09,39,17.10
2016,04,07,09,40,17.10
2016,04,07,09,41,17.20
2016,04,07,09,42,17.30
2016,04,07,09,43,17.30
2016,04,07,09,44,17.30
2016,04,07,09,45,17.40
2016,04,07,09,46,17.40
2016,04,07,09,47,17.50
2016,04,07,09,48,17.60
2016,04,07,09,49,17.60
2016,04,07,09,50,17.70
2016,04,07,09,51,17.80
2016,04,07,09,52,17.80
2016,04,07,09,53,17.90
2016,04,07,09,54,17.90
2016,04,07,09,55,18.00
2016,04,07,09,56,18.10
2016,04,07,09,57,18.20
2016,04,07,09,58,18.30
2016,04,07,09,59,18.30
2016,04,07,10,00,18.40
2016,04,07,10,01,18.40
2016,04,07,10,02,18.50
2016,04,07,10,03,18.50
2016,04,07,10,04,18.60
2016,04,07,10,05,18.50
2016,04,07,10,06,18.50
2016,04,07,10,07,18.50
2016,04,07,10,08,18.60
2016,04,07,10,09,18.70
2016,04,07,10,10,18.70
2016,04,07,10,11,18.70
2016,04,07,10,12,18.80
2016,04,07,10,13,18.80
2016,04,07,10,14,18.90
2016,04,07,10,15,18.90
2016,04,07,10,16,18.90
2016,04,07,10,17,18.90
2016,04,07,10,18,18.90
2016,04,07,10,19,18.80
2016,04,07,10,20,18.80
2016,04,07,10,21,18.80
2016,04,07,10,22,18.80
2016,04,07,10,23,18.90
2016,04,07,10,24,19.00
2016,04,07,10,25,19.00
2016,04,07,10,26,19.00
2016,04,07,10,27,19.00
2016,04,07,10,28,19.00
2016,04,07,10,29,19.00
2016,04,07,10,30,19.10
2016,04,07,10,31,19.10
2016,04,07,10,32,19.10
2016,04,07,10,33,19.10
2016,04,07,10,34,19.10
2016,04,07,10,35,19.10
2016,04,07,10,36,19.10
2016,04,07,10,37,19.10
2016,04,07,10,38,19.20
2016,04,07,10,39,19.20
2016,04,07,10,40,19.20
2016,04,07,10,41,19.20
2016,04,07,10,42,19.20
2016,04,07,10,43,19.20
2016,04,07,10,44,19.20
2016,04,07,10,45,19.20
2016,04,07,10,46,19.20
2016,04,07,10,47,19.30
2016,04,07,10,48,19.30
2016,04,07,10,49,19.30
2016,04,07,10,50,19.30
2016,04,07,10,51,19.20
2016,04,07,10,52,19.20
2016,04,07,10,53,19.20
2016,04,07,10,54,19.20
2016,04,07,10,55,19.20
2016,04,07,10,56,19.20
2016,04,07,10,57,19.20
2016,04,07,10,58,19.20
2016,04,07,10,59,19.30
2016,04,07,11,00,19.20
2016,04,07,11,01,19.20
2016,04,07,11,02,19.20
2016,04,07,11,03,19.10
2016,04,07,11,04,19.10
2016,04,07,11,05,19.10
2016,04,07,11,06,19.10
2016,04,07,11,07,19.00
2016,04,07,11,08,19.00
2016,04,07,11,09,18.90
2016,04,07,11,10,18.90
2016,04,07,11,11,19.00
2016,04,07,11,12,19.10
2016,04,07,11,13,19.10
2016,04,07,11,14,19.10
2016,04,07,11,15,19.10
2016,04,07,11,16,19.00
2016,04,07,11,17,19.00
2016,04,07,11,18,19.00
2016,04,07,11,19,19.10
2016,04,07,11,20,19.10
2016,04,07,11,21,19.10
2016,04,07,11,22,19.10
2016,04,07,11,23,19.10
2016,04,07,11,24,19.10
2016,04,07,11,25,19.00
2016,04,07,11,26,18.90
2016,04,07,11,27,18.90
2016,04,07,11,28,18.90
2016,04,07,11,29,18.90
2016,04,07,11,30,18.90
2016,04,07,11,31,18.90
2016,04,07,11,32,18.80
2016,04,07,11,33,18.80
2016,04,07,11,34,18.80
2016,04,07,11,35,18.80
2016,04,07,11,36,18.80
2016,04,07,11,37,18.80
2016,04,07,11,38,18.80
2016,04,07,11,39,18.80
2016,04,07,11,40,18.70
2016,04,07,11,41,18.70
2016,04,07,11,42,18.70
2016,04,07,11,43,18.70
2016,04,07,11,44,18.70
2016,04,07,11,45,18.80
2016,04,07,11,46,18.90
2016,04,07,11,47,18.90
2016,04,07,11,48,18.90
2016,04,07,11,49,18.90
2016,04,07,11,50,18.90
2016,04,07,11,51,18.90
2016,04,07,11,52,18.90
2016,04,07,11,53,18.80
2016,04,07,11,54,18.80
2016,04,07,11,55,18.70
2016,04,07,11,56,18.70
2016,04,07,11,57,18.60
2016,04,07,11,58,18.70
2016,04,07,11,59,18.80
2016,04,07,12,00,18.80
2016,04,07,12,01,18.90
2016,04,07,12,02,18.90
2016,04,07,12,03,18.80
2016,04,07,12,04,18.90
2016,04,07,12,05,18.90
2016,04,07,12,06,18.90
2016,04,07,12,07,18.90
2016,04,07,12,08,19.00
2016,04,07,12,09,19.10
2016,04,07,12,10,19.20
2016,04,07,12,11,19.20
2016,04,07,12,12,19.30
2016,04,07,12,13,19.40
2016,04,07,12,14,19.30
2016,04,07,12,15,19.30
2016,04,07,12,16,19.20
2016,04,07,12,17,19.10
2016,04,07,12,18,19.10
2016,04,07,12,19,19.00
2016,04,07,12,20,19.00
2016,04,07,12,21,19.00
2016,04,07,12,22,19.00
2016,04,07,12,23,19.10
2016,04,07,12,24,19.10
2016,04,07,12,25,19.20
2016,04,07,12,26,19.10
2016,04,07,12,27,19.10
2016,04,07,12,28,19.10
2016,04,07,12,29,19.10
2016,04,07,12,30,19.20
2016,04,07,12,31,19.20
2016,04,07,12,32,19.30
2016,04,07,12,33,19.30
2016,04,07,12,34,19.30
2016,04,07,12,35,19.30
2016,04,07,12,36,19.30
2016,04,07,12,37,19.40
2016,04,07,12,38,19.40
2016,04,07,12,39,19.40
2016,04,07,12,40,19.50
2016,04,07,12,41,19.50
2016,04,07,12,42,19.60
2016,04,07,12,43,19.50
2016,04,07,12,44,19.40
2016,04,07,12,45,19.40
2016,04,07,12,46,19.50
2016,04,07,12,47,19.60
2016,04,07,12,48,19.70
2016,04,07,12,49,19.70
2016,04,07,12,50,19.90
2016,04,07,12,51,20.00
2016,04,07,12,52,20.10
2016,04,07,12,53,20.10
2016,04,07,12,54,20.00
2016,04,07,12,55,20.00
2016,04,07,12,56,19.90
2016,04,07,12,57,19.90
2016,04,07,12,58,19.70
2016,04,07,12,59,19.60
2016,04,07,13,00,19.70
2016,04,07,13,01,19.70
2016,04,07,13,02,19.80
2016,04,07,13,03,19.90
2016,04,07,13,04,19.90
2016,04,07,13,05,20.00
2016,04,07,13,06,20.00
2016,04,07,13,07,20.00
2016,04,07,13,08,20.10
2016,04,07,13,09,20.00
2016,04,07,13,10,20.00
2016,04,07,13,11,19.90
2016,04,07,13,12,20.00
2016,04,07,13,13,20.10
2016,04,07,13,14,20.10
2016,04,07,13,15,20.10
2016,04,07,13,16,20.10
2016,04,07,13,17,20.20
2016,04,07,13,18,20.20
2016,04,07,13,19,20.20
2016,04,07,13,20,20.30
2016,04,07,13,21,20.30
2016,04,07,13,22,20.40
2016,04,07,13,23,20.40
2016,04,07,13,24,20.40
2016,04,07,13,25,20.40
2016,04,07,13,26,20.40
2016,04,07,13,27,20.40
2016,04,07,13,28,20.40
2016,04,07,13,29,20.50
2016,04,07,13,30,20.50
2016,04,07,13,31,20.70
2016,04,07,13,32,20.70
2016,04,07,13,33,20.70
2016,04,07,13,34,20.70
2016,04,07,13,35,20.70
2016,04,07,13,36,20.70
2016,04,07,13,37,20.70
2016,04,07,13,38,20.70
2016,04,07,13,39,20.80
2016,04,07,13,40,20.80
2016,04,07,13,41,20.90
2016,04,07,13,42,20.90
2016,04,07,13,43,20.90
2016,04,07,13,44,21.00
2016,04,07,13,45,21.00
2016,04,07,13,46,21.10
2016,04,07,13,47,21.00
2016,04,07,13,48,21.00
2016,04,07,13,49,20.90
2016,04,07,13,50,20.90
2016,04,07,13,51,20.90
2016,04,07,13,52,20.90
2016,04,07,13,53,21.00
2016,04,07,13,54,21.00
2016,04,07,13,55,21.10
2016,04,07,13,56,21.10
2016,04,07,13,57,21.10
2016,04,07,13,58,21.10
2016,04,07,13,59,21.10
2016,04,07,14,00,21.20
2016,04,07,14,01,21.30
2016,04,07,14,02,21.20
2016,04,07,14,03,21.20
2016,04,07,14,04,21.20
2016,04,07,14,05,21.20
2016,04,07,14,06,21.20
2016,04,07,14,07,21.20
2016,04,07,14,08,21.30
2016,04,07,14,09,21.30
2016,04,07,14,10,21.30
2016,04,07,14,11,21.30
2016,04,07,14,12,21.30
2016,04,07,14,13,21.30
2016,04,07,14,14,21.30
2016,04,07,14,15,21.30
2016,04,07,14,16,21.30
2016,04,07,14,17,21.40
2016,04,07,14,18,21.40
2016,04,07,14,19,21.30
2016,04,07,14,20,21.20
2016,04,07,14,21,21.20
2016,04,07,14,22,21.20
2016,04,07,14,23,21.20
2016,04,07,14,24,21.20
2016,04,07,14,25,21.20
2016,04,07,14,26,21.20
2016,04,07,14,27,21.30
2016,04,07,14,28,21.30
2016,04,07,14,29,21.30
2016,04,07,14,30,21.40
2016,04,07,14,31,21.40
2016,04,07,14,32,21.40
2016,04,07,14,33,21.40
2016,04,07,14,34,21.40
2016,04,07,14,35,21.40
2016,04,07,14,36,21.40
2016,04,07,14,37,21.40
2016,04,07,14,38,21.50
2016,04,07,14,39,21.50
2016,04,07,14,40,21.60
2016,04,07,14,41,21.70
2016,04,07,14,42,21.70
2016,04,07,14,43,21.70
2016,04,07,14,44,21.70
2016,04,07,14,45,21.80
2016,04,07,14,46,21.80
2016,04,07,14,47,21.90
2016,04,07,14,48,21.90
2016,04,07,14,49,22.00
2016,04,07,14,50,22.00
2016,04,07,14,51,22.00
2016,04,07,14,52,22.00
2016,04,07,14,53,21.90
2016,04,07,14,54,21.80
2016,04,07,14,55,21.50
2016,04,07,14,56,21.30
2016,04,07,14,57,21.10
2016,04,07,14,58,20.90
2016,04,07,14,59,20.70
2016,04,07,15,00,20.70
2016,04,07,15,01,20.60
2016,04,07,15,02,20.60
2016,04,07,15,03,20.70
2016,04,07,15,04,20.70
2016,04,07,15,05,20.70
2016,04,07,15,06,20.70
2016,04,07,15,07,20.70
2016,04,07,15,08,20.70
2016,04,07,15,09,20.60
2016,04,07,15,10,20.50
2016,04,07,15,11,20.30
2016,04,07,15,12,20.30
2016,04,07,15,13,20.20
2016,04,07,15,14,20.10
2016,04,07,15,15,20.10
2016,04,07,15,16,20.10
2016,04,07,15,17,20.10
2016,04,07,15,18,20.00
2016,04,07,15,19,19.90
2016,04,07,15,20,19.90
2016,04,07,15,21,19.90
2016,04,07,15,22,19.90
2016,04,07,15,23,19.90
2016,04,07,15,24,19.90
2016,04,07,15,25,20.00
2016,04,07,15,26,20.10
2016,04,07,15,27,20.20
2016,04,07,15,28,20.20
2016,04,07,15,29,20.10
2016,04,07,15,30,19.90
2016,04,07,15,31,19.80
2016,04,07,15,32,19.70
2016,04,07,15,33,19.70
2016,04,07,15,34,19.70
2016,04,07,15,35,19.70
2016,04,07,15,36,19.70
2016,04,07,15,37,19.70
2016,04,07,15,38,19.60
2016,04,07,15,39,19.60
2016,04,07,15,40,19.50
2016,04,07,15,41,19.60
2016,04,07,15,42,19.60
2016,04,07,15,43,19.60
2016,04,07,15,44,19.60
2016,04,07,15,45,19.60
2016,04,07,15,46,19.50
2016,04,07,15,47,19.50
2016,04,07,15,48,19.40
2016,04,07,15,49,19.30
2016,04,07,15,50,19.20
2016,04,07,15,51,19.10
2016,04,07,15,52,19.10
2016,04,07,15,53,19.10
2016,04,07,15,54,19.10
2016,04,07,15,55,19.10
2016,04,07,15,56,19.10
2016,04,07,15,57,19.10
2016,04,07,15,58,19.10
2016,04,07,15,59,19.10
2016,04,07,16,00,19.20
2016,04,07,16,01,19.40
2016,04,07,16,02,19.50
2016,04,07,16,03,19.70
2016,04,07,16,04,19.80
2016,04,07,16,05,19.80
2016,04,07,16,06,19.70
2016,04,07,16,07,19.50
2016,04,07,16,08,19.40
2016,04,07,16,09,19.30
2016,04,07,16,10,19.30
2016,04,07,16,11,19.30
2016,04,07,16,12,19.10
2016,04,07,16,13,19.00
2016,04,07,16,14,18.90
2016,04,07,16,15,18.80
2016,04,07,16,16,18.80
2016,04,07,16,17,18.80
2016,04,07,16,18,18.90
2016,04,07,16,19,18.90
2016,04,07,16,20,19.00
2016,04,07,16,21,19.10
2016,04,07,16,22,19.00
2016,04,07,16,23,19.10
2016,04,07,16,24,19.10
2016,04,07,16,25,19.20
2016,04,07,16,26,19.20
2016,04,07,16,27,19.30
2016,04,07,16,28,19.30
2016,04,07,16,29,19.30
2016,04,07,16,30,19.30
2016,04,07,16,31,19.30
2016,04,07,16,32,19.20
2016,04,07,16,33,19.10
2016,04,07,16,34,19.10
2016,04,07,16,35,19.00
2016,04,07,16,36,18.90
2016,04,07,16,37,18.80
2016,04,07,16,38,18.80
2016,04,07,16,39,18.80
2016,04,07,16,40,18.80
2016,04,07,16,41,18.90
2016,04,07,16,42,18.90
2016,04,07,16,43,18.90
2016,04,07,16,44,18.80
2016,04,07,16,45,18.90
2016,04,07,16,46,18.80
2016,04,07,16,47,18.90
2016,04,07,16,48,18.80
2016,04,07,16,49,18.70
2016,04,07,16,50,18.70
2016,04,07,16,51,18.70
2016,04,07,16,52,18.70
2016,04,07,16,53,18.70
2016,04,07,16,54,18.60
2016,04,07,16,55,18.50
2016,04,07,16,56,18.40
2016,04,07,16,57,18.50
2016,04,07,16,58,18.50
2016,04,07,16,59,18.60
2016,04,07,17,00,18.70
2016,04,07,17,01,18.70
2016,04,07,17,02,18.70
2016,04,07,17,03,18.70
2016,04,07,17,04,18.70
2016,04,07,17,05,18.70
2016,04,07,17,06,18.70
2016,04,07,17,07,18.60
2016,04,07,17,08,18.50
2016,04,07,17,09,18.50
2016,04,07,17,10,18.50
2016,04,07,17,11,18.40
2016,04,07,17,12,18.30
2016,04,07,17,13,18.30
2016,04,07,17,14,18.30
2016,04,07,17,15,18.30
2016,04,07,17,16,18.30
2016,04,07,17,17,18.30
2016,04,07,17,18,18.30
2016,04,07,17,19,18.20